Regional Weather Roundup
Issued by NWS Sioux Falls, SD

Home | Current Version | Previous Version | Graphics & Text | Print | Product List | Glossary On
Versions: 1 2 3 4 5 6 7 8 9 10 11 12 13 14 15 16 17 18 19 20 21 22 23 24 25 26 27 28 29 30 31 32 33 34 35 36 37 38 39 40 41 42 43 44 45 46 47 48 49 50
000
ASUS43 KFSD 051410
RWRFSD

WEATHER ROUNDUP FOR SE SOUTH DAKOTA/SW MINNESOTA/NW IOWA
NATIONAL WEATHER SERVICE SIOUX FALLS SD
800 AM CST FRI FEB 05 2016

NOTE: "FAIR" INDICATES FEW OR NO CLOUDS BELOW 12,000 FEET WITH NO
SIGNIFICANT WEATHER AND OR OBSTRUCTIONS TO VISIBILITY.


SDZ038>040-050-052>070-051500-
SOUTHEAST SOUTH DAKOTA

CITY           SKY/WX    TMP DP  RH WIND       PRES   REMARKS
BROOKINGS      CLOUDY    17  13  84 S13       30.16S WCI   4
CHAMBERLAIN    CLOUDY    28  23  82 SW6       30.12F WCI  21
HURON          CLOUDY    20  15  81 S8        30.15R WCI  10
MADISON        CLOUDY    18  18 100 S10       30.16F WCI   6
MITCHELL       CLOUDY    21  16  81 S9        30.17F WCI  11
SIOUX FALLS    CLOUDY    19  13  77 S10       30.22S WCI   7
WINNER         CLOUDY    34  25  69 W13       30.14R WCI  25
YANKTON        CLOUDY    16  10  79 CALM      30.22F
$$

MNZ071-072-080-081-089-090-097-098-051500-
SOUTHWEST MINNESOTA

CITY           SKY/WX    TMP DP  RH WIND       PRES   REMARKS
FAIRMONT       CLOUDY     9   5  85 S9        30.30R WCI  -5
JACKSON        CLOUDY    10   7  85 S7        30.27S WCI   0
LUVERNE        CLOUDY     9   5  85 CALM      30.25S FOG
MARSHALL       CLOUDY    19  13  77 SW20G28   30.20F WCI   3
MONTEVIDEO     CLOUDY    12  10  92 S9        30.23S WCI   0
PIPESTONE        N/A     18   9  68 S14       30.19F WCI   4
REDWOOD FALLS  CLOUDY    12   8  84 SE12      30.26F WCI  -2
TRACY          CLOUDY    22  16  78 S17G23    30.22R WCI   7
WINDOM         CLOUDY    16  12  86 S6        30.26S WCI   7
WORTHINGTON    CLOUDY    16  10  79 SW15      30.25S WCI   1
$$

IAZ001>003-012>014-020>022-031-032-NEZ013-014-SDZ071-051500-
NORTHWEST IOWA

CITY           SKY/WX    TMP DP  RH WIND       PRES   REMARKS
CHEROKEE       PTCLDY     3   1  91 CALM      30.31S
DENISON        CLOUDY    10   9  92 CALM      30.33R
ESTHERVILLE    CLOUDY     5   3  91 S9        30.30R WCI  -9
LE MARS        CLOUDY    16  16 100 S9        30.30S WCI   4
ORANGE CITY    CLOUDY    14  12  92 S5        30.26F WCI   6
SHELDON        CLOUDY    12  10  92 S10       30.26S WCI  -1
SIOUX CITY     CLOUDY    13   9  84 E12       30.30F WCI  -1
SPENCER        CLOUDY     5   1  83 SE6       30.30R WCI  -6
STORM LAKE     CLOUDY    12  12 100 S12       30.30S WCI  -2
$$

ABBREVIATIONS USED IN REMARKS
   TC - TEMPERATURE IN CELSIUS
  WCI - WIND CHILL INDEX
   HX - HEAT INDEX
  VSB - VISIBILITY




USA.gov is the U.S. government's official web portal to all federal, state and local government web resources and services.